"Pseudo-MPEC" for ZTF0Czw

Created 2020 Feb 24 2:07:11 UT using Find_Orb

Click here for an explanation of pseudo-MPECs

 
 Astrometry: 
     ZTF0Czw  C2020 01 31.29127008 28 28.24 +19 15 35.4    ~2457 20.02rUNEOCPI41
     ZTF0Czw  C2020 01 31.29456908 28 28.36 +19 15 35.3    ~2457 19.88rUNEOCPI41
     ZTF0Czw  C2020 02 01.28904108 28 56.17 +19 13 43.4    ~2457 20.21rUNEOCPI41
     ZTF0Czw  C2020 02 01.29084008 28 56.25 +19 13 43.4    ~2457 20.36rUNEOCPI41

Station data:
(I41) Palomar Mountain--ZTF  (N33.357340 W116.859780)  US/California. 1.2-m
   f/2.44 Oschin Schmidt + CCD.

Orbital elements:  ZTF0Czw
   Perihelion 2020 Feb 1.771029 +/- 41.7 TT = 18:30:16 (JD 2458881.271029)
Epoch 2020 Feb  1.0 TT = JDT 2458880.5   Earth MOID: 0.3118   Ma: 0.0158
M 359.77868414 +/- 13               (J2000 ecliptic)          AutoNEOCP
n   0.28703959 +/- 0.238            Peri.  146.40099 +/- 80
a   2.27601357 +/- 1.25             Node   343.95157 +/- 48
e   0.4301598 +/- 0.239             Incl.    0.07598 +/- 0.037
P   3.43                   H 21.9   G  0.15   U 11.8  SR
q 1.29696389 +/- 0.279    Q 3.25506324 +/- 62.9
From 4 observations 2020 Jan. 31-Feb. 1 (24.0 hr); mean residual 0".29
Residuals in arcseconds: 
200131 I41  .45-  .12-    200201 I41  .34-  .10-    
200131 I41  .45+  .12+    200201 I41  .33+  .10+    

Ephemerides (geocentric):
Date (UTC) HH   RA              Dec         delta   r     elong  mag " sig PA
---- -- -- --  -------------   -----------  ------ ------ -----  --- ---- ---
2020 02 24 02  08 45 41.279   +18 05 34.49  .35198 1.3156 154.3 21.2  42d  14
2020 02 24 03  08 45 43.914   +18 05 23.54  .35210 1.3156 154.3 21.2  42d  14
2020 02 24 04  08 45 46.553   +18 05 12.58  .35223 1.3157 154.3 21.2  42d  14
2020 02 24 05  08 45 49.194   +18 05 01.61  .35236 1.3158 154.2 21.2  42d  14
2020 02 24 06  08 45 51.840   +18 04 50.62  .35249 1.3158 154.2 21.2  42d  14
2020 02 24 07  08 45 54.488   +18 04 39.61  .35262 1.3159 154.2 21.2  42d  14
2020 02 24 08  08 45 57.139   +18 04 28.59  .35275 1.3160 154.1 21.3  42d  14
2020 02 24 09  08 45 59.794   +18 04 17.56  .35288 1.3160 154.1 21.3  42d  14
2020 02 24 10  08 46 02.452   +18 04 06.51  .35301 1.3161 154.1 21.3  42d  14
2020 02 24 11  08 46 05.113   +18 03 55.44  .35314 1.3162 154.0 21.3  42d  14
2020 02 24 12  08 46 07.777   +18 03 44.36  .35327 1.3163 154.0 21.3  42d  14
2020 02 24 13  08 46 10.445   +18 03 33.27  .35340 1.3163 154.0 21.3  42d  14
2020 02 24 14  08 46 13.116   +18 03 22.16  .35353 1.3164 154.0 21.3  42d  14
2020 02 24 15  08 46 15.790   +18 03 11.04  .35366 1.3165 153.9 21.3  42d  14
2020 02 24 16  08 46 18.467   +18 02 59.90  .35379 1.3165 153.9 21.3  42d  14
2020 02 24 17  08 46 21.147   +18 02 48.74  .35393 1.3166 153.9 21.3  42d  14
2020 02 24 18  08 46 23.831   +18 02 37.58  .35406 1.3167 153.8 21.3  42d  14
2020 02 24 19  08 46 26.518   +18 02 26.39  .35419 1.3167 153.8 21.3  42d  14
2020 02 24 20  08 46 29.208   +18 02 15.20  .35432 1.3168 153.8 21.3  42d  14
2020 02 24 21  08 46 31.901   +18 02 03.98  .35445 1.3169 153.7 21.3  42d  14
2020 02 24 22  08 46 34.598   +18 01 52.76  .35459 1.3170 153.7 21.3  42d  14
2020 02 24 23  08 46 37.297   +18 01 41.52  .35472 1.3170 153.7 21.3  43d  14
2020 02 25 00  08 46 40.000   +18 01 30.26  .35485 1.3171 153.6 21.3  43d  14
2020 02 25 01  08 46 42.706   +18 01 18.99  .35499 1.3172 153.6 21.3  43d  14
2020 02 25 02  08 46 45.416   +18 01 07.70  .35512 1.3172 153.6 21.3  43d  14
2020 02 25 03  08 46 48.128   +18 00 56.40  .35525 1.3173 153.5 21.3  43d  14
2020 02 25 04  08 46 50.844   +18 00 45.08  .35539 1.3174 153.5 21.3  43d  14
2020 02 25 05  08 46 53.563   +18 00 33.75  .35552 1.3175 153.5 21.3  43d  14
2020 02 25 06  08 46 56.285   +18 00 22.41  .35565 1.3175 153.5 21.3  43d  14
2020 02 25 07  08 46 59.010   +18 00 11.04  .35579 1.3176 153.4 21.3  43d  14
2020 02 25 08  08 47 01.739   +17 59 59.67  .35592 1.3177 153.4 21.3  43d  14
2020 02 25 09  08 47 04.471   +17 59 48.28  .35606 1.3177 153.4 21.3  43d  14
2020 02 25 10  08 47 07.206   +17 59 36.87  .35619 1.3178 153.3 21.3  43d  14
2020 02 25 11  08 47 09.944   +17 59 25.45  .35633 1.3179 153.3 21.3  43d  14
2020 02 25 12  08 47 12.685   +17 59 14.02  .35646 1.3180 153.3 21.3  43d  14
2020 02 25 13  08 47 15.430   +17 59 02.57  .35660 1.3180 153.2 21.3  43d  14
2020 02 25 14  08 47 18.178   +17 58 51.10  .35674 1.3181 153.2 21.3  43d  14
2020 02 25 15  08 47 20.929   +17 58 39.62  .35687 1.3182 153.2 21.3  43d  14
2020 02 25 16  08 47 23.683   +17 58 28.13  .35701 1.3183 153.2 21.3  43d  14
2020 02 25 17  08 47 26.440   +17 58 16.62  .35714 1.3183 153.1 21.3  43d  13
2020 02 25 18  08 47 29.201   +17 58 05.09  .35728 1.3184 153.1 21.3  43d  13
2020 02 25 19  08 47 31.964   +17 57 53.55  .35742 1.3185 153.1 21.3  43d  13
2020 02 25 20  08 47 34.731   +17 57 42.00  .35756 1.3185 153.0 21.3  43d  13
2020 02 25 21  08 47 37.502   +17 57 30.43  .35769 1.3186 153.0 21.3  43d  13
2020 02 25 22  08 47 40.275   +17 57 18.84  .35783 1.3187 153.0 21.3  43d  13
2020 02 25 23  08 47 43.052   +17 57 07.24  .35797 1.3188 152.9 21.3  43d  13
2020 02 26 00  08 47 45.831   +17 56 55.63  .35811 1.3188 152.9 21.3  43d  13
2020 02 26 01  08 47 48.614   +17 56 44.00  .35824 1.3189 152.9 21.3  43d  13